TimeEDT,TemperatureF,Dew PointF,Humidity,Sea Level PressureIn,VisibilityMPH,Wind Direction,Wind SpeedMPH,Gust SpeedMPH,PrecipitationIn,Events,Conditions,WindDirDegrees,DateUTC
12:52 AM,61.3,48.2,62,29.95,10.0,WSW,8.1,-,N/A,,Clear,240,2012-11-01 04:52:00
1:52 AM,59.2,49.3,70,29.95,10.0,WSW,5.8,-,N/A,,Clear,240,2012-11-01 05:52:00
2:52 AM,59.7,50.0,70,29.95,10.0,WSW,5.8,-,N/A,,Clear,250,2012-11-01 06:52:00
3:52 AM,-9999,-9999,N/A,29.96,-9999.0,North,-9999.0,-,N/A,,Unknown,0,2012-11-01 07:52:00
4:52 AM,-9999,-9999,N/A,29.96,-9999.0,North,-9999.0,-,N/A,,Unknown,0,2012-11-01 08:52:00
5:52 AM,-9999,-9999,N/A,29.96,-9999.0,North,-9999.0,-,N/A,,Unknown,0,2012-11-01 09:52:00
6:03 AM,60.8,51.8,72,29.96,10.0,WSW,5.8,-,N/A,,Clear,250,2012-11-01 10:03:00
6:52 AM,60.8,49.1,65,29.97,10.0,West,6.9,-,N/A,,Clear,260,2012-11-01 10:52:00
7:52 AM,58.6,51.4,77,29.98,10.0,West,8.1,-,N/A,,Partly Cloudy,270,2012-11-01 11:52:00
8:52 AM,59.5,50.9,73,29.99,10.0,WNW,6.9,-,N/A,,Clear,290,2012-11-01 12:52:00
9:52 AM,62.1,50.7,66,29.99,10.0,NW,8.1,-,N/A,,Partly Cloudy,310,2012-11-01 13:52:00
10:52 AM,64.9,44.1,47,30.01,10.0,WNW,9.2,-,N/A,,Scattered Clouds,300,2012-11-01 14:52:00
11:52 AM,66.6,43.2,43,29.99,10.0,West,8.1,-,N/A,,Partly Cloudy,270,2012-11-01 15:52:00
12:52 PM,68.0,42.4,39,29.97,10.0,West,10.4,-,N/A,,Partly Cloudy,260,2012-11-01 16:52:00
1:52 PM,73.2,44.4,36,29.93,10.0,West,9.2,-,N/A,,Scattered Clouds,270,2012-11-01 17:52:00
2:52 PM,72.7,43.7,35,29.91,10.0,West,12.7,-,N/A,,Scattered Clouds,280,2012-11-01 18:52:00
3:52 PM,72.7,43.7,35,29.90,10.0,West,12.7,-,N/A,,Scattered Clouds,280,2012-11-01 19:52:00
4:52 PM,73.2,40.5,31,29.90,10.0,WNW,11.5,-,N/A,,Partly Cloudy,300,2012-11-01 20:52:00
5:52 PM,73.0,41.2,32,29.91,10.0,WNW,4.6,-,N/A,,Partly Cloudy,300,2012-11-01 21:52:00
6:52 PM,73.0,41.2,32,29.93,10.0,WNW,4.6,-,N/A,,Partly Cloudy,300,2012-11-01 22:52:00
7:52 PM,64.2,41.9,44,29.96,10.0,WNW,4.6,-,N/A,,Clear,290,2012-11-01 23:52:00
8:52 PM,62.4,42.1,47,29.97,10.0,WSW,3.5,-,N/A,,Clear,250,2012-11-02 00:52:00
9:52 PM,60.8,45.7,57,29.99,10.0,WSW,3.5,-,N/A,,Clear,240,2012-11-02 01:52:00
10:52 PM,60.6,45.0,56,30.00,10.0,West,4.6,-,N/A,,Clear,270,2012-11-02 02:52:00
11:52 PM,60.3,45.1,57,30.01,10.0,SSW,3.5,-,N/A,,Clear,210,2012-11-02 03:52:00